Overview Statistics Trail Chart Weather Telemetry Raw packets
 

This is the latest recevied weather packets stored in our database for station/object OK1TBM-13. If no packets are shown the sender has not sent any weather packets the latest 10 day(s).

<< 53 54 55 56 57 58 59 >>
Time Temp. Humidity Pressure Rain* Wind** Luminosity Snow
1788167401 17.78° C 95% 1014.2 hPa 0 mm - 83 W/m² -
1788167101 17.78° C 96% 1014.2 hPa 0 mm - 102 W/m² -
1788166808 17.78° C 96% 1014.2 hPa 0 mm - 102 W/m² -
1788166501 17.78° C 97% 1014.2 hPa 0 mm - 36 W/m² -
1788166220 17.78° C 96% 1014.2 hPa 0 mm - 53 W/m² -
1788165902 17.78° C 95% 1014.2 hPa 0 mm - 52 W/m² -
1788165602 17.78° C 94% 1014.2 hPa 2.54 mm - 24 W/m² -
1788165301 18.33° C 92% 1014.2 hPa 5.08 mm - 40 W/m² -
1788165001 18.89° C 90% 1014.2 hPa 2.54 mm - 39 W/m² -
1788164700 19.44° C 86% 1013.6 hPa 0 mm - 28 W/m² -
1788164400 18.89° C 89% 1013.6 hPa 0 mm - 24 W/m² -
1788164100 18.89° C 89% 1012.5 hPa 0 mm - 30 W/m² -
1788163808 19.44° C 88% 1012.5 hPa 0 mm - 36 W/m² -
1788163501 19.44° C 86% 1012.5 hPa 0 mm - 81 W/m² -
1788163207 18.89° C 87% 1012.5 hPa 0 mm - 155 W/m² -
1788162901 18.89° C 87% 1012.5 hPa 0 mm - 100 W/m² -
1788162601 19.44° C 83% 1012.5 hPa 0 mm - 103 W/m² -
1788161701 19.44° C 80% 1012.5 hPa 0 mm - 72 W/m² -
1788161400 19.44° C 81% 1012.5 hPa 0 mm - 79 W/m² -
1788161106 19.44° C 80% 1012.2 hPa 0 mm - 75 W/m² -
1788160801 18.89° C 80% 1012.2 hPa 0 mm - 70 W/m² -
1788160201 18.89° C 82% 1012.2 hPa 0 mm - 76 W/m² -
1788159901 18.89° C 81% 1012.2 hPa 0 mm - 74 W/m² -
1788159601 18.89° C 82% 1012.2 hPa 0 mm - 80 W/m² -
1788159300 19.44° C 79% 1012.2 hPa 0 mm - 78 W/m² -

* Rain latest hour (hover to see other rain measurements)
** Current wind speed in m/s (hover to see current wind gust speed)